Simultaneous Nadir Overpasses (SNOs) Predictions

Prediction of SNOs between METOP-B and TERRA Satellite Orbit:

Table of predicted SNOs for the next 14.0 days since TLE Epoch: 10/21/2017
Index Date (METOP-B) Time (METOP-B) Lat,Lon (METOP-B) SZA (METOP-B ) Date (TERRA) Time (TERRA) Lat,Lon (TERRA) SZA (TERRA ) Distance(km) Time Diff (sec)
1 10/22/2017 20:16:21 -81.29, 102.68 84.28 10/22/2017 20:16:49 -81.29, 102.81 84.25 2.20 28
2 10/22/2017 21:07:01 81.30, -89.63 95.78 10/22/2017 21:06:15 81.29, -89.51 95.77 2.08 46
3 10/25/2017 15:50:42 -81.30, 169.33 83.27 10/25/2017 15:51:03 -81.31, 169.50 83.24 3.10 21
4 10/25/2017 16:41:22 81.30, -22.98 96.79 10/25/2017 16:40:29 81.31, -22.84 96.78 2.55 53
5 10/28/2017 11:25:04 -81.30,-124.05 82.29 10/28/2017 11:25:20 -81.30,-124.19 82.30 2.41 16
6 10/28/2017 12:15:44 81.30, 43.64 97.77 10/28/2017 12:14:46 81.30, 43.45 97.71 3.15 58
7 10/31/2017 06:59:27 -81.30, -57.84 81.40 10/31/2017 06:59:38 -81.29, -57.89 81.40 0.99 11
8 10/31/2017 07:50:07 81.30, 109.84 98.66 10/31/2017 07:49:04 81.29, 109.74 98.62 2.01 63
9 11/03/2017 02:33:48 -81.30, 8.74 80.49 11/03/2017 02:33:55 -81.31, 8.78 80.47 1.10 7




NCC Satellite Simultaneous Nadir Overpasses (SNOs) Prediction Service
